TimeEDT,TemperatureF,Dew PointF,Humidity,Sea Level PressureIn,VisibilityMPH,Wind Direction,Wind SpeedMPH,Gust SpeedMPH,PrecipitationIn,Events,Conditions,WindDirDegrees,DateUTC
12:15 AM,67.3,64.6,91,30.26,10.0,WNW,3.5,-,N/A,,Overcast,300,2013-07-07 04:15:00
12:35 AM,67.1,65.1,93,30.27,10.0,Calm,Calm,-,N/A,,Overcast,0,2013-07-07 04:35:00
12:55 AM,66.6,66.0,98,30.27,4.0,Calm,Calm,-,0.06,Rain,Rain,0,2013-07-07 04:55:00
1:15 AM,66.2,66.2,100,30.26,1.8,Calm,Calm,-,0.01,Rain,Heavy Rain,0,2013-07-07 05:15:00
1:35 AM,66.4,66.4,100,30.25,0.8,NE,3.5,-,0.03,Rain,Rain,40,2013-07-07 05:35:00
1:55 AM,66.2,66.2,100,30.25,1.0,ESE,3.5,-,0.03,Rain,Light Rain,120,2013-07-07 05:55:00
2:15 AM,66.4,66.4,100,30.24,0.2,ESE,3.5,-,N/A,Fog,Fog,110,2013-07-07 06:15:00
2:35 AM,66.4,66.4,100,30.25,1.0,Calm,Calm,-,N/A,,Overcast,0,2013-07-07 06:35:00
2:55 AM,66.4,66.2,99,30.22,10.0,Calm,Calm,-,N/A,,Mostly Cloudy,0,2013-07-07 06:55:00
3:15 AM,66.0,66.0,100,30.22,1.2,Calm,Calm,-,N/A,,Mostly Cloudy,0,2013-07-07 07:15:00
3:35 AM,66.0,65.7,99,30.21,10.0,Calm,Calm,-,N/A,,Scattered Clouds,0,2013-07-07 07:35:00
3:55 AM,66.2,65.5,98,30.21,10.0,Calm,Calm,-,N/A,,Scattered Clouds,0,2013-07-07 07:55:00
4:15 AM,66.0,65.3,98,30.20,10.0,Calm,Calm,-,N/A,,Clear,0,2013-07-07 08:15:00
4:35 AM,66.6,65.3,96,30.20,10.0,ESE,3.5,-,N/A,,Clear,110,2013-07-07 08:35:00
4:55 AM,66.6,65.3,96,30.19,10.0,ESE,3.5,-,N/A,,Clear,120,2013-07-07 08:55:00
5:15 AM,66.2,65.5,98,30.19,10.0,Calm,Calm,-,N/A,Rain,Light Rain,0,2013-07-07 09:15:00
5:35 AM,65.8,65.5,99,30.19,10.0,SE,3.5,-,N/A,,Mostly Cloudy,130,2013-07-07 09:35:00
5:55 AM,66.4,65.3,96,30.19,10.0,ESE,3.5,-,N/A,,Mostly Cloudy,110,2013-07-07 09:55:00
6:15 AM,67.1,65.3,94,30.19,10.0,Calm,Calm,-,N/A,,Mostly Cloudy,0,2013-07-07 10:15:00
6:35 AM,66.7,65.3,95,30.19,10.0,ESE,3.5,-,N/A,,Scattered Clouds,110,2013-07-07 10:35:00
6:55 AM,67.6,65.1,92,30.20,10.0,East,3.5,-,N/A,,Scattered Clouds,80,2013-07-07 10:55:00
7:15 AM,67.6,65.3,92,30.19,10.0,Calm,Calm,-,N/A,,Overcast,0,2013-07-07 11:15:00
7:35 AM,68.2,65.1,90,30.19,10.0,SSE,3.5,-,N/A,,Overcast,150,2013-07-07 11:35:00
7:55 AM,68.0,65.5,92,30.20,10.0,Calm,Calm,-,N/A,,Overcast,0,2013-07-07 11:55:00
8:15 AM,68.9,65.5,89,30.21,10.0,Calm,Calm,-,N/A,,Overcast,0,2013-07-07 12:15:00
8:35 AM,69.6,65.8,88,30.21,10.0,Calm,Calm,-,N/A,,Overcast,0,2013-07-07 12:35:00
8:55 AM,70.3,65.7,85,30.21,10.0,SSW,3.5,-,N/A,,Scattered Clouds,200,2013-07-07 12:55:00
9:15 AM,69.8,66.6,89,30.22,10.0,SSE,3.5,-,N/A,,Mostly Cloudy,160,2013-07-07 13:15:00
9:35 AM,70.2,66.6,88,30.22,10.0,SSE,3.5,-,N/A,,Mostly Cloudy,150,2013-07-07 13:35:00
9:55 AM,70.2,66.9,89,30.22,10.0,South,3.5,-,N/A,,Overcast,180,2013-07-07 13:55:00
10:15 AM,69.8,67.6,93,30.22,10.0,South,3.5,-,N/A,,Overcast,170,2013-07-07 14:15:00
10:35 AM,71.2,66.6,85,30.22,10.0,SSW,4.6,-,N/A,,Overcast,210,2013-07-07 14:35:00
10:55 AM,71.6,66.7,85,30.23,10.0,Calm,Calm,-,N/A,,Overcast,0,2013-07-07 14:55:00
11:15 AM,71.6,67.3,86,30.23,10.0,SW,3.5,-,N/A,,Overcast,220,2013-07-07 15:15:00
11:35 AM,71.6,66.9,85,30.24,10.0,Calm,Calm,-,N/A,,Overcast,0,2013-07-07 15:35:00
11:55 AM,71.2,68.2,90,30.23,10.0,WNW,3.5,-,N/A,,Overcast,290,2013-07-07 15:55:00
12:15 PM,70.3,68.9,95,30.23,7.0,NW,3.5,-,0.01,Rain,Light Rain,310,2013-07-07 16:15:00
12:35 PM,70.2,68.9,96,30.23,10.0,WNW,3.5,-,0.02,Rain,Light Rain,300,2013-07-07 16:35:00
12:55 PM,70.9,68.5,92,30.23,10.0,NW,6.9,-,0.02,,Mostly Cloudy,310,2013-07-07 16:55:00
1:15 PM,64.9,63.5,95,30.25,3.0,WNW,6.9,-,0.11,Rain-Thunderstorm,Thunderstorms and Rain,300,2013-07-07 17:15:00
1:35 PM,63.7,63.0,97,30.25,0.8,South,3.5,-,0.61,Rain-Thunderstorm,Heavy Thunderstorms and Rain,180,2013-07-07 17:35:00
1:55 PM,63.3,62.8,98,30.24,1.5,South,4.6,-,0.69,Rain-Thunderstorm,Light Thunderstorms and Rain,190,2013-07-07 17:55:00
2:15 PM,64.0,63.9,99,30.24,2.5,SSE,3.5,-,N/A,Thunderstorm,Overcast,150,2013-07-07 18:15:00
2:35 PM,64.8,64.6,99,30.25,4.0,Calm,Calm,-,0.01,,Overcast,0,2013-07-07 18:35:00
2:55 PM,66.7,64.2,92,30.22,10.0,Calm,Calm,-,0.01,,Mostly Cloudy,0,2013-07-07 18:55:00
3:15 PM,67.1,64.6,92,30.22,10.0,SW,5.8,-,N/A,Rain,Light Rain,230,2013-07-07 19:15:00
3:35 PM,67.6,66.0,95,30.21,10.0,Calm,Calm,-,N/A,Rain,Light Rain,0,2013-07-07 19:35:00
3:55 PM,67.1,65.7,95,30.20,10.0,NW,3.5,-,N/A,Rain,Light Rain,310,2013-07-07 19:55:00
4:15 PM,68.2,66.6,95,30.22,10.0,West,5.8,-,N/A,,Overcast,270,2013-07-07 20:15:00
4:35 PM,68.4,66.0,92,30.21,10.0,WNW,3.5,-,N/A,,Overcast,290,2013-07-07 20:35:00
4:55 PM,68.5,66.2,92,30.19,10.0,WNW,3.5,-,N/A,,Overcast,300,2013-07-07 20:55:00
5:15 PM,69.8,66.2,88,30.20,10.0,West,4.6,-,N/A,,Mostly Cloudy,260,2013-07-07 21:15:00
5:35 PM,69.6,66.4,89,30.19,10.0,West,3.5,-,N/A,,Mostly Cloudy,260,2013-07-07 21:35:00
5:55 PM,69.3,66.4,91,30.19,10.0,West,3.5,-,N/A,,Scattered Clouds,270,2013-07-07 21:55:00
6:15 PM,69.1,66.4,91,30.19,10.0,Calm,Calm,-,N/A,,Scattered Clouds,0,2013-07-07 22:15:00
6:35 PM,69.1,66.6,92,30.19,10.0,WNW,5.8,-,N/A,,Mostly Cloudy,290,2013-07-07 22:35:00
6:55 PM,69.3,66.4,91,30.18,10.0,West,4.6,-,N/A,,Overcast,270,2013-07-07 22:55:00
7:15 PM,70.9,66.6,86,30.19,10.0,WSW,3.5,-,N/A,,Mostly Cloudy,240,2013-07-07 23:15:00
7:35 PM,70.2,65.8,86,30.20,10.0,SSW,5.8,-,N/A,,Overcast,210,2013-07-07 23:35:00
7:55 PM,70.0,65.8,87,30.19,10.0,SW,5.8,-,N/A,,Overcast,220,2013-07-07 23:55:00
8:15 PM,70.0,65.7,86,30.19,10.0,WSW,3.5,-,N/A,,Overcast,240,2013-07-08 00:15:00
8:35 PM,69.6,65.7,87,30.19,10.0,Calm,Calm,-,N/A,,Overcast,0,2013-07-08 00:35:00
8:55 PM,69.1,64.9,87,30.20,10.0,SW,4.6,-,N/A,,Overcast,230,2013-07-08 00:55:00
9:15 PM,69.1,65.1,87,30.21,10.0,SW,4.6,-,N/A,,Overcast,220,2013-07-08 01:15:00
9:35 PM,68.5,65.3,89,30.21,10.0,WSW,3.5,-,N/A,,Overcast,240,2013-07-08 01:35:00
9:55 PM,68.4,64.6,88,30.22,10.0,SW,5.8,-,N/A,Rain,Rain,220,2013-07-08 01:55:00
10:15 PM,67.3,64.9,92,30.22,10.0,SSW,4.6,-,N/A,,Overcast,210,2013-07-08 02:15:00
10:35 PM,67.3,64.4,90,30.23,10.0,WSW,3.5,-,N/A,,Mostly Cloudy,240,2013-07-08 02:35:00
10:55 PM,66.7,64.2,92,30.24,10.0,Calm,Calm,-,N/A,,Scattered Clouds,0,2013-07-08 02:55:00
11:15 PM,66.7,63.9,90,30.24,10.0,SW,3.5,-,N/A,,Clear,220,2013-07-08 03:15:00
11:35 PM,66.6,64.0,92,30.24,10.0,Calm,Calm,-,N/A,,Clear,0,2013-07-08 03:35:00
11:55 PM,65.8,64.4,95,30.24,10.0,SW,4.6,-,N/A,,Clear,220,2013-07-08 03:55:00